Weather History for Danbury, CT

Change the Weather History Date:

Thursday, February 2, 2012

  Actual Average Record
Temperature  
Mean Temperature 36 °F -  
Max Temperature 42 °F 36 °F 55 °F (1973)
Min Temperature 30 °F 18 °F -7 °F (1961)
Degree Days  
Heating Degree Days 29    
Moisture  
Dew Point 28 °F    
Average Humidity 73    
Maximum Humidity 93    
Minimum Humidity 58    
Precipitation  
Precipitation 0.00 in - - ()
Sea Level Pressure  
Sea Level Pressure 30.08 in    
Wind  
Wind Speed 4 mph (North)    
Max Wind Speed 13 mph    
Max Gust Speed 21 mph    
Visibility 10 miles    
Events      
Averages and records for this station are not official NWS values.
T = Trace of Precipitation, MM = Missing Value Source: NWS Daily Summary

Daily Weather History Graph

Daily Weather History Graph

Search for Another Location

Airport:

Trip Planner

Search our weather history database for the weather conditions in past years. The results will help you decide how hot, cold, wet, or windy it might be!

Date:

Astronomy

Feb. 02, 2012 Rise Set
Actual Time 7:04 AM EST 5:10 PM EST
Civil Twilight 6:35 AM EST 5:40 PM EST
Nautical Twilight 6:02 AM EST 6:13 PM EST
Astronomical Twilight 5:30 AM EST 6:45 PM EST
Moon 12:18 PM EST (2/2) 2:45 AM EST (2/2)
Length of Visible Light 11h 04m
Length of Day
10h 05m
Waxing Gibbous, 73% of the Moon is Illuminated
Feb 2
Waxing Gibbous
Feb 7
Full
Feb 14
Last Quarter
Feb 21
New
Feb 29
First Quarter

Hourly Weather History & Observations

Time (EST) Temp. Windchill Dew Point Humidity Pressure Visibility Wind Dir Wind Speed Gust Speed Precip Events Conditions
12:53 AM 36.0 °F - 34.0 °F 93% 30.01 in 10.0 mi Calm Calm - N/A   Clear
1:53 AM 35.1 °F - 33.1 °F 92% 30.02 in 9.0 mi Calm Calm - N/A   Clear
2:53 AM 34.0 °F - 30.9 °F 89% 30.02 in 9.0 mi Calm Calm - N/A   Clear
3:53 AM 34.0 °F - 30.0 °F 85% 30.00 in 10.0 mi Calm Calm - N/A   Clear
4:53 AM 30.9 °F - 28.9 °F 92% 30.01 in 9.0 mi Calm Calm - N/A   Clear
5:53 AM 36.0 °F 32.1 °F 30.0 °F 79% 30.01 in 10.0 mi North 4.6 mph - N/A   Clear
6:53 AM 32.0 °F 28.7 °F 28.0 °F 85% 30.04 in 10.0 mi SE 3.5 mph - N/A   Clear
7:53 AM 32.0 °F - 28.9 °F 88% 30.05 in 10.0 mi Calm Calm - N/A   Clear
8:53 AM 36.0 °F - 30.0 °F 79% 30.06 in 10.0 mi Calm Calm - N/A   Clear
9:53 AM 39.0 °F 33.4 °F 28.9 °F 67% 30.06 in 10.0 mi North 8.1 mph - N/A   Clear
10:53 AM 39.0 °F 32.8 °F 28.9 °F 67% 30.06 in 10.0 mi NNE 9.2 mph - N/A   Clear
11:53 AM 39.9 °F 33.9 °F 28.9 °F 65% 30.04 in 10.0 mi North 9.2 mph - N/A   Clear
12:43 PM 41.0 °F 35.8 °F 28.4 °F 61% 30.02 in 10.0 mi North 8.1 mph - N/A   Clear
12:53 PM 42.1 °F 36.6 °F 28.0 °F 58% 30.02 in 10.0 mi North 9.2 mph - N/A   Clear
1:53 PM 42.1 °F 38.4 °F 28.0 °F 58% 30.01 in 10.0 mi NNW 5.8 mph - N/A   Overcast
2:53 PM 41.0 °F 35.8 °F 28.0 °F 60% 30.03 in 10.0 mi NW 8.1 mph - N/A   Overcast
3:53 PM 39.9 °F 35.1 °F 27.0 °F 60% 30.04 in 10.0 mi North 6.9 mph - N/A   Overcast
4:53 PM 39.0 °F 31.4 °F 27.0 °F 62% 30.07 in 10.0 mi North 12.7 mph - N/A   Overcast
5:53 PM 37.9 °F 31.5 °F 27.0 °F 65% 30.10 in 10.0 mi NNW 9.2 mph - N/A   Overcast
6:53 PM 36.0 °F 29.0 °F 26.1 °F 67% 30.13 in 10.0 mi NNW 9.2 mph - N/A   Overcast
7:53 PM 35.1 °F 26.9 °F 25.0 °F 67% 30.16 in 10.0 mi North 11.5 mph - N/A   Overcast
8:35 PM 33.8 °F 26.4 °F 24.8 °F 70% 30.16 in 10.0 mi NNW 9.2 mph - N/A   Overcast
8:53 PM 34.0 °F 26.6 °F 24.1 °F 67% 30.18 in 10.0 mi NNW 9.2 mph 20.7 mph N/A   Overcast
9:53 PM 33.1 °F 24.4 °F 21.9 °F 64% 30.20 in 10.0 mi North 11.5 mph 17.3 mph N/A   Overcast
10:53 PM 33.1 °F 23.9 °F 21.9 °F 64% 30.23 in 10.0 mi NNW 12.7 mph 19.6 mph N/A   Overcast
11:53 PM 32.0 °F 23.0 °F 21.9 °F 66% 30.25 in 10.0 mi North 11.5 mph 20.7 mph N/A   Overcast